This demonstration page uses our WeatherBlox Daily Observations layout. Learn more.

Left ArrowRight Arrow

Hourly Observations for February 10, 2022

Temp ( °F °C ) Dew Point ( °F °C ) Humidity (%) Winds ( mph kmh ) Pressure ( in mb ) Visibility ( mi km ) Precip ( " mm )
12:53 am 00:53 Clear 70 21.1 37 2.8 30 30 N 13 20 30.24 1024 10 16 0.00 0.00
1:53 am 01:53 Clear 67 19.4 37 2.8 33 33 NNW 7 11 30.24 1024 10 16 0.00 0.00
2:53 am 02:53 Clear 68 20 37 2.8 32 32 N 12 19 30.22 1024 10 16 0.00 0.00
3:53 am 03:53 Clear 68 20 37 2.8 32 32 VRB 5 7 30.23 1024 10 16 0.00 0.00
4:53 am 04:53 Clear 67 19.4 37 2.8 33 33 NNW 7 11 30.22 1024 10 16 0.00 0.00
5:53 am 05:53 Clear 67 19.4 37 2.8 33 33 NNW 5 7 30.22 1024 10 16 0.00 0.00
6:53 am 06:53 Clear 65 18.3 37 2.8 36 36 NNW 7 11 30.22 1023 10 16 0.00 0.00
7:53 am 07:53 Sunny 66 18.9 37 2.8 34 34 NNW 10 17 30.22 1024 10 16 0.00 0.00
8:53 am 08:53 Sunny 70 21.1 37 2.8 30 30 N 12 19 30.22 1024 10 16 0.00 0.00
9:53 am 09:53 Sunny 73 22.8 37 2.8 27 27 Calm 30.22 1024 10 16 0.00 0.00
10:53 am 10:53 Sunny 76 24.4 37 2.8 24 24 N 13 20 30.21 1023 8 13 0.00 0.00
11:53 am 11:53 Sunny 79 26.1 38 3.3 23 23 NNE 16 26 30.18 1022 10 16 0.00 0.00
12:53 pm 12:53 Sunny 81 27.2 37 2.8 21 21 N 15 24 30.14 1021 10 16 0.00 0.00
1:53 pm 13:53 Sunny 82 27.8 39 3.9 22 22 NNE 14 22 30.10 1019 10 16 0.00 0.00
2:53 pm 14:53 Sunny 84 28.9 39 3.9 20 20 N 14 22 30.08 1019 10 16 0.00 0.00
3:53 pm 15:53 Sunny 84 28.9 38 3.3 19 19 N 13 20 30.07 1018 10 16 0.00 0.00
4:53 pm 16:53 Sunny 83 28.3 37 2.8 19 19 N 10 17 30.06 1018 10 16 0.00 0.00
5:53 pm 17:53 Clear 80 26.7 36 2.2 20 20 N 10 17 30.07 1018 10 16 0.00 0.00
6:53 pm 18:53 Clear 76 24.4 36 2.2 23 23 NNW 7 11 30.09 1019 10 16 0.00 0.00
7:53 pm 19:53 Clear 72 22.2 37 2.8 28 28 N 5 7 30.10 1019 10 16 0.00 0.00
8:53 pm 20:53 Clear 71 21.7 37 2.8 29 29 NNW 7 11 30.11 1020 10 16 0.00 0.00
9:53 pm 21:53 Clear 58 14.4 40 4.4 51 51 E 3 6 30.13 1020 10 16 0.00 0.00
10:53 pm 22:53 Clear 55 12.8 41 5 59 59 E 3 6 30.13 1020 10 16 0.00 0.00
11:53 pm 23:53 Clear 53 11.7 41 5 64 64 Calm 30.13 1020 10 16 0.00 0.00

Powered by AerisWeather